Location: Cisewo
(53.3833°N, 14.9000°E)
Time: 12:12:11
(UTC+00:00)

CZ-4C R/B - Pass Details

Date: 18 April 2021
Orbit: 612 x 1390 km, 63.4° (Epoch: 14 May)

Event Time Altitude Azimuth Distance (km) Brightness Sun altitude
Rises 22:05:42 0° 293° (WNW) 3,426 5.9 -24.4°
Reaches altitude 10° 22:08:13 10° 303° (WNW) 2,601 5.3 -24.5°
Maximum altitude 22:13:52 36° 9° (N) 1,594 4.1 -24.7°
Drops below altitude 10° 22:20:37 10° 74° (ENE) 3,119 5.2 -24.9°
Sets 22:23:54 0° 83° (E) 4,195 5.8 -25.0°
